Showing default

BEIDOU 3M6, 43208

Orbit data source: Space-Track

BEIDOU 3M6, 43208 is a payload satellite owned by CNSA (CN) in MEO that was launched on Mon, 12 Feb 2018 UTC via a CHANG ZHENG 3B/YZ-1 launch vehicle from the Xichang Space Center, China (XSC). Payloads include a variety of satellites, spacecraft, and rockets equipped with specific instruments for various scientific and technological missions. These include communications satellites like Starlink; space stations such as the ISS; scientific satellites like the Hubble; Earth observation satellites from companies like Planet Labs, Umbra, and HawkEye 360; GPS; miniature CubeSats for education and research; and military/defense satellites.

Loading next visibility...
BEIDOU 3M6 details
Identifier
43208, 2018-018B
Orbit
MEO
Last TLE update4 days ago
Origin
Flag of CNCNSA (CN / PRC)
ManufacturerCAST
MissionOperational Defense Navigation
Bus & MotorBD-3M, Unknown motor
Mass1,014 kg wet, ~850 kg dry
Launch date (UTC)
2018-02-12 (7 years ago)
Launch vehicle
CHANG ZHENG 3B/YZ-1
Launch site
Xichang Space Center, China (XSC)
Object type
Payload
Rocket body
Debris
Shape & HBRBox + 2 Pan, 10 m
Radar Cross Section8.984 m², Large (>1 m²)

Expand to show TLE details & history

TLE from 4 days ago
0 BEIDOU 3M6
1 43208U 18018B   24344.59383280 -.00000025  00000-0  00000-0 0  9998
2 43208  56.1662  81.5150 0006288 309.0189  50.9271  1.86231009 46418
Epoch: 2024-12-09T14:15Z
Definitive object data (Epoch: 2024-12-09T14:15:07.153Z)
Latitude0.00003°
Longitude148.91845°
Altitude21,517.299 km
Speed3.781 km/s
True Right ascension05h 26m 03s
True Declination0° 00' 00"
Sunlit
Object was in daylight at TLE epoch
Visualization TLE readout
Latitude40.03363°
Longitude-177.03325°
Altitude21,535.558 km
Speed3.78 km/s
Apparent Right ascension07h 23m 43s
Apparent Declination39° 39' 11"
Sunlit
Object is in daylight
Visualization observer readout
Local Sidereal Time08:46:16
Azimuth275.706° WNW
Elevation74.174°
Doppler factor1
Orbital elements
Apogee altitude21,545.56 km
Perigee altitude21,510.465 km
Semi-major axis27,906.15 km
Eccentricity0.0006288
Inclination56.1662°
RAAN81.515°
Arg. of periapsis309.0189°
True anomaly50.98307°
Mean anomaly50.9271°
Eccentric anomaly50.95508°
Mean motion0.46558 °/min
BSTARUnknown
Orbital period773.23 mins
Loading maneuver chart data...
Loading historical data...
Loading historical data...
Loading historical data...
Loading historical data...
Loading historical data...
Loading historical data...
Loading historical data...
Other satellites on launch #18 in the year 2018 (2018-02-12 UTC)

BEIDOU 3M6 Visibility forecast

Observer location: undefined°, undefined

Span
Click to sort rows by Start time (UTC) header in descending order
Start Az.
Max El. time (UTC)
Max El. Az.
Max El.
End time (UTC)
End Az.
275 mins2024-12-13 10:16:21.843Z275.605° WNW2024-12-13 10:38:21.843Z314.109° NW44.229°2024-12-13 14:51:21.843Z109.325° ESE
21 mins2024-12-14 09:55:21.843Z237.045° WSW2024-12-14 10:16:21.843Z242.928° WSW16.469°2024-12-14 10:16:21.843Z242.928° WSW
|